Date String (YYYY-MM-DD hh:mm:ss) UTC,Instrument flags,absolute air pressure of the measurement (hPa),sample flow rate (lpm),inlet stack bypass flow (lpm),air temperature of the measurement (°C),ambient temperature measured by the external sensor (°C),aerosol sample conditioner tube jacket temperature (°C),OPC LED temperature (°C),internal box temperature (°C),relative humidity of the measurement (%),span deviation,mass concentration of particles derived from Lorenz-Mie calculation of OPC scattering (μg/m³),mass concentration of particles derived from Lorenz-Mie calculation of OPC scattering (μg/m³),mass concentration of particles derived from Lorenz-Mie calculation of OPC scattering (μg/m³)
DateTimeUTC,F1_M11,P_M11,Q1_M11,Q2_M11,T1_M11,T2_M11,T3_M11,T4_M11,T5_M11,U1_M11,ZSPAN_M11,X2_M11,X0_M11,X1_M11
2024-03-22 23:00:00,SystemResetWarning,0827.0,5.01,000.00,024.8,024.3,000.0,033.1,026.7,11.7,0000.0,0004.02,0013.67,0002.42
2024-03-22 23:01:00,SystemResetWarning,0827.0,5.00,000.00,024.9,024.3,000.0,033.2,026.7,11.8,0000.0,0004.01,0013.29,0002.41
2024-03-22 23:02:00,SystemResetWarning,0827.0,5.00,000.00,024.9,024.3,000.0,033.2,026.7,11.9,0000.0,0004.04,0012.72,0002.38
2024-03-22 23:03:00,SystemResetWarning,0827.0,5.00,000.00,024.9,024.3,000.0,033.2,026.7,12.2,0000.0,0004.08,0012.67,0002.36
2024-03-22 23:04:00,SystemResetWarning,0827.0,5.00,000.00,024.9,024.3,000.0,033.2,026.7,12.0,0000.0,0004.10,0012.56,0002.37
2024-03-22 23:05:00,SystemResetWarning,0827.0,5.00,000.00,024.9,024.3,000.0,033.2,026.7,12.0,0000.0,0004.07,0012.15,0002.35
2024-03-22 23:06:00,SystemResetWarning,0826.9,5.00,000.00,024.9,024.3,000.0,033.2,026.7,11.2,0000.0,0004.08,0011.11,0002.33
2024-03-22 23:07:00,SystemResetWarning,0827.0,4.99,000.00,024.9,024.3,000.0,033.2,026.8,10.4,0000.0,0004.06,0011.16,0002.29
2024-03-22 23:08:00,SystemResetWarning,0827.0,5.00,000.00,025.0,024.3,000.0,033.3,026.8,10.3,0000.0,0004.09,0011.67,0002.28
2024-03-22 23:09:00,SystemResetWarning,0827.0,5.00,000.00,025.0,024.3,000.0,033.3,026.8,10.5,0000.0,0004.09,0011.59,0002.25
2024-03-22 23:10:00,SystemResetWarning,0827.0,5.00,000.00,025.0,024.3,000.0,033.3,026.8,11.7,0000.0,0004.05,0011.65,0002.22
2024-03-22 23:11:00,SystemResetWarning,0827.1,5.00,000.00,025.0,024.3,000.0,033.3,026.8,11.6,0000.0,0004.01,0011.79,0002.20
2024-03-22 23:12:00,SystemResetWarning,0827.1,5.00,000.00,025.0,024.3,000.0,033.3,026.8,11.6,0000.0,0004.01,0011.30,0002.19
2024-03-22 23:13:00,SystemResetWarning,0827.0,5.00,000.00,025.0,024.3,000.0,033.3,026.8,10.1,0000.0,0004.02,0011.37,0002.17
2024-03-22 23:14:00,SystemResetWarning,0827.1,5.00,000.00,025.0,024.3,000.0,033.3,026.8,09.9,0000.0,0003.97,0011.51,0002.11
2024-03-22 23:15:00,SystemResetWarning,0827.0,5.00,000.00,025.0,024.3,000.0,033.4,026.8,09.6,0000.0,0003.89,0011.25,0002.04
2024-03-22 23:16:00,SystemResetWarning,0827.0,5.00,000.00,025.0,024.3,000.0,033.4,026.8,09.3,0000.0,0003.82,0011.07,0001.97
2024-03-22 23:17:00,SystemResetWarning,0827.0,5.00,000.00,025.0,024.3,000.0,033.4,026.8,09.1,0000.0,0003.76,0010.87,0001.90
2024-03-22 23:18:00,SystemResetWarning,0827.0,5.01,000.00,025.0,024.3,000.0,033.4,026.8,09.1,0000.0,0003.85,0011.31,0001.85
2024-03-22 23:19:00,SystemResetWarning,0826.9,4.99,000.00,025.0,024.4,000.0,033.4,026.8,09.3,0000.0,0003.86,0011.59,0001.81
2024-03-22 23:20:00,SystemResetWarning,0827.0,4.99,000.00,025.0,024.4,000.0,033.4,026.8,08.9,0000.0,0003.86,0011.50,0001.78
2024-03-22 23:21:00,SystemResetWarning,0826.9,4.99,000.00,025.0,024.4,000.0,033.4,026.8,08.8,0000.0,0003.83,0011.40,0001.75
2024-03-22 23:22:00,SystemResetWarning,0827.0,5.00,000.00,025.0,024.4,000.0,033.4,026.9,09.1,0000.0,0003.80,0011.07,0001.70
2024-03-22 23:23:00,SystemResetWarning,0827.0,5.01,000.00,025.1,024.4,000.0,033.4,026.8,09.2,0000.0,0003.76,0011.08,0001.64
2024-03-22 23:24:00,SystemResetWarning,0827.0,4.99,000.00,025.1,024.4,000.0,033.4,026.9,08.8,0000.0,0003.66,0010.99,0001.59
2024-03-22 23:25:00,SystemResetWarning,0827.0,5.01,000.00,025.1,024.4,000.0,033.4,026.9,08.6,0000.0,0003.66,0010.43,0001.56
2024-03-22 23:26:00,SystemResetWarning,0826.9,5.00,000.00,025.1,024.4,000.0,033.4,026.9,08.4,0000.0,0003.66,0010.42,0001.56
2024-03-22 23:27:00,SystemResetWarning,0827.0,5.00,000.00,025.1,024.4,000.0,033.5,026.8,08.4,0000.0,0003.68,0010.66,0001.57
2024-03-22 23:28:00,SystemResetWarning,0826.9,5.00,000.00,025.1,024.4,000.0,033.5,026.8,08.5,0000.0,0003.69,0011.29,0001.55
2024-03-22 23:29:00,SystemResetWarning,0826.9,4.99,000.00,025.1,024.3,000.0,033.5,026.8,08.5,0000.0,0003.64,0011.21,0001.57
2024-03-22 23:30:00,SystemResetWarning,0827.0,5.00,000.00,025.1,024.3,000.0,033.5,026.8,08.6,0000.0,0003.59,0010.57,0001.60
2024-03-22 23:31:00,SystemResetWarning,0826.9,5.00,000.00,025.1,024.3,000.0,033.5,026.9,08.7,0000.0,0003.61,0010.51,0001.62
2024-03-22 23:32:00,SystemResetWarning,0826.9,5.00,000.00,025.1,024.3,000.0,033.5,026.8,08.8,0000.0,0003.58,0010.59,0001.61
2024-03-22 23:33:00,SystemResetWarning,0826.9,5.00,000.00,025.1,024.3,000.0,033.5,026.8,08.6,0000.0,0003.61,0010.50,0001.60
2024-03-22 23:34:00,SystemResetWarning,0826.9,5.00,000.00,025.1,024.3,000.0,033.5,026.8,08.5,0000.0,0003.63,0010.27,0001.61
2024-03-22 23:35:00,SystemResetWarning,0826.9,5.00,000.00,025.1,024.3,000.0,033.5,026.8,08.7,0000.0,0003.74,0010.31,0001.65
2024-03-22 23:36:00,SystemResetWarning,0826.9,5.00,000.00,025.1,024.3,000.0,033.5,026.8,08.6,0000.0,0003.79,0010.07,0001.67
2024-03-22 23:37:00,SystemResetWarning,0826.9,5.00,000.00,025.1,024.3,000.0,033.5,026.8,08.4,0000.0,0003.75,0010.07,0001.69
2024-03-22 23:38:00,SystemResetWarning,0827.0,4.99,000.00,025.1,024.3,000.0,033.5,026.8,08.4,0000.0,0003.73,0010.51,0001.68
2024-03-22 23:39:00,SystemResetWarning,0826.9,5.01,000.00,025.0,024.3,000.0,033.5,026.8,08.5,0000.0,0003.75,0009.98,0001.68
2024-03-22 23:40:00,SystemResetWarning,0826.9,5.00,000.00,025.0,024.3,000.0,033.5,026.8,08.5,0000.0,0003.85,0010.19,0001.69
2024-03-22 23:41:00,SystemResetWarning,0826.9,5.00,000.00,025.0,024.3,000.0,033.5,026.8,08.2,0000.0,0003.86,0010.51,0001.67
2024-03-22 23:42:00,SystemResetWarning,0827.0,5.00,000.00,025.0,024.3,000.0,033.5,026.8,07.7,0000.0,0003.84,0010.42,0001.66
2024-03-22 23:43:00,SystemResetWarning,0826.9,5.00,000.00,025.0,024.3,000.0,033.5,026.8,07.9,0000.0,0003.91,0010.78,0001.67
2024-03-22 23:44:00,SystemResetWarning,0826.9,5.00,000.00,025.0,024.3,000.0,033.5,026.8,07.4,0000.0,0003.97,0011.09,0001.70
2024-03-22 23:45:00,SystemResetWarning,0827.0,5.00,000.00,025.0,024.3,000.0,033.5,026.8,07.7,0000.0,0004.00,0011.28,0001.70
2024-03-22 23:46:00,SystemResetWarning,0826.9,5.00,000.00,025.0,024.3,000.0,033.5,026.8,08.2,0000.0,0003.96,0011.39,0001.68
2024-03-22 23:47:00,SystemResetWarning,0827.0,5.00,000.00,025.0,024.3,000.0,033.5,026.8,08.3,0000.0,0003.95,0011.55,0001.64
2024-03-22 23:48:00,SystemResetWarning,0827.0,5.00,000.00,025.0,024.3,000.0,033.5,026.8,07.7,0000.0,0003.95,0011.80,0001.63
2024-03-22 23:49:00,SystemResetWarning,0826.9,5.00,000.00,025.0,024.3,000.0,033.5,026.8,07.6,0000.0,0003.96,0011.61,0001.62
2024-03-22 23:50:00,SystemResetWarning,0827.0,5.00,000.00,025.0,024.3,000.0,033.5,026.8,07.8,0000.0,0003.99,0011.62,0001.63
2024-03-22 23:51:00,SystemResetWarning,0827.0,5.00,000.00,025.0,024.3,000.0,033.5,026.8,08.0,0000.0,0003.95,0011.96,0001.64
2024-03-22 23:52:00,SystemResetWarning,0827.0,4.99,000.00,025.1,024.3,000.0,033.5,026.8,08.3,0000.0,0003.96,0012.38,0001.65
2024-03-22 23:53:00,SystemResetWarning,0827.0,5.00,000.00,025.0,024.3,000.0,033.5,026.8,08.2,0000.0,0003.98,0012.44,0001.66
2024-03-22 23:54:00,SystemResetWarning,0827.0,5.00,000.00,025.0,024.3,000.0,033.5,026.8,08.0,0000.0,0003.98,0013.01,0001.65
2024-03-22 23:55:00,SystemResetWarning,0827.0,5.01,000.00,025.1,024.3,000.0,033.5,026.8,07.5,0000.0,0003.97,0013.30,0001.64
2024-03-22 23:56:00,SystemResetWarning,0827.0,5.01,000.00,025.1,024.3,000.0,033.5,026.8,07.6,0000.0,0003.97,0013.23,0001.66
2024-03-22 23:57:00,SystemResetWarning,0827.0,5.00,000.00,025.1,024.3,000.0,033.5,026.8,07.9,0000.0,0004.01,0013.28,0001.66
2024-03-22 23:58:00,SystemResetWarning,0827.0,5.00,000.00,025.1,024.3,000.0,033.5,026.8,08.0,0000.0,0004.09,0013.21,0001.69
2024-03-22 23:59:00,SystemResetWarning,0827.0,4.99,000.00,025.1,024.3,000.0,033.5,026.8,07.7,0000.0,0004.13,0013.02,0001.72
